| time (UTC) | temp F | wind direction | speed knots | gust knots | rain 1hr in | rain 24hr in | rain mn in | humidity % | barometer mb |
| 20260508054504 | 45 | 211 | 0.0 | 1.7 | 0.00 | 0.00 | 0.00 | 74 | 1012.4 |
| 20260508053005 | 45 | 240 | 0.0 | 0.9 | 0.00 | 0.00 | 0.00 | 75 | 1012.6 |
| 20260508051504 | 45 | 240 | 0.0 | 0.9 | 0.00 | 0.00 | 0.00 | 73 | 1012.8 |
| 20260508050005 | 44 | 222 | 0.0 | 2.6 | 0.00 | 0.00 | 0.00 | 74 | 1012.9 |
| 20260508044504 | 43 | 245 | 0.0 | 1.7 | 0.00 | 0.00 | 0.00 | 74 | 1012.9 |
| 20260508041504 | 42 | 234 | 0.0 | 1.7 | 0.00 | 0.00 | 0.00 | 78 | 1012.7 |
| 20260508040006 | 39 | 231 | 0.9 | 5.2 | 0.00 | 0.00 | 0.00 | 82 | 1012.9 |
| 20260508034505 | 39 | 0 | 0.0 | 0.0 | 0.00 | 0.00 | 0.00 | 85 | 1012.9 |
| 20260508033005 | 39 | 0 | 0.0 | 0.0 | 0.00 | 0.00 | 0.00 | 83 | 1012.8 |
| 20260508031504 | 39 | 0 | 0.0 | 0.0 | 0.00 | 0.00 | 0.00 | 82 | 1012.7 |
| 20260508030005 | 40 | 0 | 0.0 | 0.0 | 0.00 | 0.00 | 0.00 | 80 | 1012.8 |
| 20260508024505 | 41 | 0 | 0.0 | 0.0 | 0.00 | 0.00 | 0.00 | 78 | 1012.9 |
| 20260508021504 | 42 | 0 | 0.0 | 0.0 | 0.00 | 0.00 | 0.00 | 71 | 1012.7 |
| 20260508020005 | 43 | 0 | 0.0 | 0.0 | 0.00 | 0.00 | 0.00 | 68 | 1012.7 |
| 20260508014505 | 44 | 0 | 0.0 | 0.0 | 0.00 | 0.00 | 0.00 | 63 | 1012.6 |
| 20260508013005 | 46 | 246 | 0.0 | 0.9 | 0.00 | 0.00 | 0.00 | 60 | 1012.6 |
| 20260508011505 | 47 | 0 | 0.0 | 0.0 | 0.00 | 0.00 | 0.00 | 56 | 1012.6 |
| 20260508010005 | 49 | 0 | 0.0 | 0.0 | 0.00 | 0.00 | 0.00 | 54 | 1012.4 |
| 20260508004504 | 50 | 0 | 0.0 | 0.0 | 0.00 | 0.00 | 0.00 | 51 | 1012.4 |
| 20260508003006 | 51 | 268 | 0.9 | 5.2 | 0.00 | 0.00 | 0.00 | 45 | 1012.3 |
| 20260508001504 | 52 | 286 | 1.7 | 6.1 | 0.00 | 0.00 | 0.00 | 44 | 1012.2 |
| 20260508000005 | 52 | 281 | 1.7 | 7.0 | 0.00 | 0.00 | 0.00 | 43 | 1011.9 |
| 20260507234504 | 53 | 290 | 2.6 | 7.8 | 0.00 | 0.00 | 0.00 | 42 | 1011.8 |
| 20260507233005 | 54 | 272 | 2.6 | 9.6 | 0.00 | 0.00 | 0.00 | 41 | 1011.8 |
| 20260507231504 | 54 | 271 | 2.6 | 7.8 | 0.00 | 0.00 | 0.00 | 41 | 1011.8 |
| 20260507230005 | 54 | 291 | 4.3 | 12.2 | 0.00 | 0.00 | 0.00 | 40 | 1011.9 |
| 20260507224505 | 54 | 297 | 4.3 | 15.6 | 0.00 | 0.00 | 0.00 | 38 | 1011.9 |
| 20260507223005 | 55 | 297 | 3.5 | 12.2 | 0.00 | 0.00 | 0.00 | 38 | 1011.9 |
| 20260507221504 | 56 | 287 | 4.3 | 12.2 | 0.00 | 0.00 | 0.00 | 37 | 1011.9 |
| 20260507220005 | 55 | 286 | 3.5 | 13.0 | 0.00 | 0.00 | 0.00 | 47 | 1012.0 |
| 20260507213005 | 54 | 298 | 3.5 | 10.4 | 0.00 | 0.00 | 0.00 | 50 | 1011.6 |
| 20260507204504 | 54 | 318 | 2.6 | 8.7 | 0.00 | 0.00 | 0.00 | 52 | 1011.2 |
| 20260507200005 | 57 | 309 | 2.6 | 7.8 | 0.00 | 0.00 | 0.00 | 47 | 1010.9 |
| 20260507194504 | 56 | 302 | 2.6 | 11.3 | 0.00 | 0.00 | 0.00 | 47 | 1011.1 |
| 20260507193005 | 54 | 342 | 2.6 | 7.0 | 0.00 | 0.00 | 0.00 | 48 | 1011.3 |
| 20260507191504 | 54 | 339 | 3.5 | 11.3 | 0.00 | 0.00 | 0.00 | 46 | 1011.3 |
| 20260507184504 | 55 | 304 | 2.6 | 11.3 | 0.00 | 0.00 | 0.00 | 48 | 1011.4 |
| 20260507183005 | 55 | 300 | 2.6 | 7.0 | 0.00 | 0.00 | 0.00 | 51 | 1011.4 |
| 20260507181504 | 55 | 300 | 2.6 | 7.0 | 0.00 | 0.00 | 0.00 | 49 | 1011.4 |
| 20260507180004 | 55 | 322 | 1.7 | 7.8 | 0.00 | 0.00 | 0.00 | 51 | 1011.4 |
| 20260507174504 | 55 | 282 | 2.6 | 8.7 | 0.00 | 0.00 | 0.00 | 50 | 1011.5 |
| 20260507171504 | 55 | 281 | 3.5 | 8.7 | 0.00 | 0.00 | 0.00 | 47 | 1011.5 |
| 20260507164505 | 56 | 275 | 3.5 | 9.6 | 0.00 | 0.00 | 0.00 | 44 | 1011.6 |
| 20260507163006 | 58 | 241 | 2.6 | 10.4 | 0.00 | 0.00 | 0.00 | 42 | 1011.6 |
| 20260507161503 | 57 | 301 | 2.6 | 7.8 | 0.00 | 0.00 | 0.00 | 41 | 1011.7 |
| 20260507160005 | 58 | 271 | 1.7 | 7.0 | 0.00 | 0.00 | 0.00 | 41 | 1011.7 |
| 20260507153005 | 57 | 224 | 2.6 | 8.7 | 0.00 | 0.00 | 0.00 | 42 | 1011.9 |
| 20260507151504 | 57 | 220 | 1.7 | 6.1 | 0.00 | 0.00 | 0.00 | 44 | 1012.0 |
| 20260507150005 | 55 | 272 | 1.7 | 7.8 | 0.00 | 0.00 | 0.00 | 48 | 1012.0 |
| 20260507144504 | 55 | 281 | 1.7 | 7.8 | 0.00 | 0.00 | 0.00 | 48 | 1012.0 |
| 20260507143004 | 54 | 254 | 1.7 | 6.1 | 0.00 | 0.00 | 0.00 | 50 | 1012.1 |
| 20260507141504 | 52 | 352 | 1.7 | 4.3 | 0.00 | 0.00 | 0.00 | 55 | 1012.3 |
| 20260507140005 | 52 | 267 | 2.6 | 7.0 | 0.00 | 0.00 | 0.00 | 58 | 1012.4 |
| 20260507134504 | 51 | 248 | 1.7 | 3.5 | 0.00 | 0.00 | 0.00 | 65 | 1012.6 |
| 20260507133005 | 50 | 260 | 0.9 | 6.1 | 0.00 | 0.00 | 0.00 | 68 | 1012.8 |
| 20260507131504 | 50 | 275 | 1.7 | 5.2 | 0.00 | 0.00 | 0.00 | 68 | 1012.7 |
| 20260507130005 | 48 | 229 | 0.9 | 4.3 | 0.00 | 0.00 | 0.00 | 71 | 1012.6 |
| 20260507124504 | 48 | 264 | 1.7 | 3.5 | 0.00 | 0.00 | 0.00 | 72 | 1012.7 |
| 20260507121504 | 46 | 228 | 1.7 | 5.2 | 0.00 | 0.00 | 0.00 | 76 | 1012.7 |
| 20260507114504 | 42 | 220 | 0.9 | 3.5 | 0.00 | 0.00 | 0.00 | 85 | 1012.6 |
| 20260507111506 | 39 | 203 | 0.0 | 1.7 | 0.00 | 0.00 | 0.00 | 93 | 1012.4 |
| 20260507104504 | 38 | 183 | 0.0 | 0.9 | 0.00 | 0.00 | 0.00 | 93 | 1012.3 |
| 20260507103005 | 38 | 168 | 0.0 | 0.9 | 0.00 | 0.00 | 0.00 | 93 | 1012.2 |
| 20260507101504 | 38 | 161 | 0.0 | 1.7 | 0.00 | 0.00 | 0.00 | 93 | 1012.3 |
| 20260507100005 | 38 | 113 | 0.0 | 0.9 | 0.00 | 0.00 | 0.00 | 93 | 1012.2 |
| 20260507094504 | 38 | 112 | 0.0 | 0.9 | 0.00 | 0.01 | 0.00 | 93 | 1012.1 |
| 20260507091504 | 37 | 0 | 0.0 | 0.0 | 0.00 | 0.05 | 0.00 | 93 | 1012.3 |
| 20260507084504 | 37 | 111 | 0.0 | 0.9 | 0.00 | 0.07 | 0.00 | 92 | 1012.3 |
| 20260507083005 | 37 | 0 | 0.0 | 0.0 | 0.00 | 0.09 | 0.00 | 91 | 1012.3 |
| 20260507081504 | 37 | 0 | 0.0 | 0.0 | 0.00 | 0.12 | 0.00 | 91 | 1012.4 |
| 20260507080006 | 38 | 0 | 0.0 | 0.0 | 0.00 | 0.15 | 0.00 | 91 | 1012.5 |
| 20260507074504 | 38 | 0 | 0.0 | 0.0 | 0.00 | 0.20 | 0.00 | 91 | 1012.5 |
| 20260507071504 | 39 | 0 | 0.0 | 0.0 | 0.00 | 0.29 | 0.00 | 89 | 1012.5 |
| 20260507070009 | 39 | 111 | 0.0 | 1.7 | 0.00 | 0.32 | 0.00 | 89 | 1012.6 |
| 20260507064503 | 40 | 110 | 0.0 | 0.9 | 0.00 | 0.33 | 0.00 | 88 | 1012.7 |
| 20260507060004 | 41 | 110 | 0.0 | 0.9 | 0.00 | 0.41 | 0.00 | 85 | 1013.1 |